Location: Kra?nica
(53.4833°N, 14.6167°E)
Time: 16:17:24
(UTC+00:00)

Cosmos 2219 Rocket - Pass Details

Date: 23 May 2024
Orbit: 827 x 846 km, 71.0° (Epoch: 13 June)

Event Time Altitude Azimuth Distance (km) Brightness Sun altitude
Rises 01:47:52 0° 327° (NNW) 3,399 5.6 -7.3°
Reaches altitude 10° 01:50:19 10° 326° (NW) 2,464 4.8 -7.1°
Maximum altitude 01:55:58 77° 242° (WSW) 870 2.2 -6.6°
Drops below altitude 10° 02:01:36 10° 157° (SSE) 2,461 4.4 -6.0°
Sets 02:04:03 0° 156° (SSE) 3,394 5.1 -5.8°
